[[{"header":{"parameterUnit":"m.s-1","parameterCategory":1,"la1":30.2991,"la2":30.254,"lo1":-89.0895,"lo2":-89.0444,"dy":0.0017,"dx":0.0017,"nx":28,"ny":28,"refTime":"2023-08-04T21:00:00:Z","depth":0,"parameterNumber":2,"parameterNumberName":"U-component_of_WINDS"},"data":[0,0,0,0,0,0,0,0,0,0,0,0,0,0,0,0,0,0,0,0,0,0,0,0,0,0,0,0,0,0,0,0,0,0,0,0,0,0,0,0,0,0,0,0,0,0,0,0,0,0,0,0,0,0,0,0,0,0,5.3165,5.3166,0,5.3289,5.3291,5.3292,5.3226,5.3222,5.3219,5.3216,5.3343,5.335,5.3356,0,0,0,0,0,0,0,0,0,0,0,0,0,5.2868,5.2874,5.3165,5.3167,5.3168,5.3289,5.3291,5.3292,5.3226,5.3222,5.3218,5.3214,5.3341,5.3349,5.3357,0,0,0,0,0,0,0,0,0,0,0,0,0,5.2995,5.2876,5.3165,5.315,5.3149,5.3289,5.3291,5.3293,5.3227,5.3222,5.3217,5.3212,5.3339,5.3348,5.3358,5.3519,0,0,5.3388,5.3392,0,0,0,0,0,0,0,0,5.2988,5.3006,5.315,5.3151,5.3151,5.3237,5.3233,5.3369,5.3228,5.3198,5.3216,5.321,5.3312,5.3324,5.3358,5.3525,5.353,5.3388,5.3394,5.3399,5.3401,0,0,0,0,0,0,0,5.298,5.3001,5.3214,5.3152,5.3153,5.3136,5.3148,5.3258,5.3281,5.32,5.3195,5.3211,5.3311,5.3349,5.336,5.3532,5.3388,5.3397,5.3403,5.3407,5.3833,5.3838,0,0,0,0,0,0,5.2972,5.2994,5.321,5.3218,5.3056,5.3145,5.3159,5.3214,5.328,5.3285,5.3215,5.3207,5.3334,5.3349,5.3365,5.3554,5.3399,5.3408,5.3413,5.3828,5.3834,5.384,0,0,0,0,0,0,5.2966,5.2992,5.3205,5.3105,5.313,5.3156,5.3218,5.3219,5.3257,5.3292,5.3295,5.3249,5.3331,5.3351,5.348,5.3558,5.3412,5.3421,5.3821,5.383,5.3837,5.3937,0,0,0,0,0,0,5.2957,5.299,5.3052,5.3107,5.3136,5.3319,5.3223,5.3225,5.3274,5.3265,5.3325,5.333,5.3329,5.3466,5.349,5.3569,5.3429,5.3814,5.3825,5.3835,5.3927,5.3947,5.3965,0,0,0,0,0,5.2947,5.3076,5.3056,5.3082,5.3214,5.3324,5.3341,5.3337,5.328,5.3342,5.3364,5.3328,5.3546,5.348,5.3506,5.3589,5.3809,5.3822,5.3834,5.3918,5.3943,5.3965,0,0,0,0,0,0,5.3032,5.3083,5.3061,5.3212,5.3264,5.3313,5.3391,5.3364,5.3434,5.3423,5.3415,5.3429,5.3562,5.3589,5.3514,5.3746,5.3669,5.3687,5.3724,5.3748,5.3767,5.3756,5.3437,0,0,0,0,0,5.3068,5.3153,5.3193,5.3322,5.3349,5.3366,5.3414,5.3406,5.3459,5.3481,5.3512,5.3566,5.3645,5.3699,5.3775,5.3931,5.3941,5.4001,5.402,5.4036,5.4051,5.4131,5.4157,5.388,5.388,5.388,0,0,5.3143,5.3182,5.3236,5.334,5.3379,5.3466,5.3385,5.3481,5.3545,5.3496,5.3618,5.3643,5.3702,5.3844,5.3909,5.3871,5.4129,5.4051,5.4063,5.407,5.4146,5.4172,5.4196,5.3889,5.3887,5.3886,0,0,5.3324,5.3364,5.3473,5.3514,5.3574,5.3584,5.361,5.3663,5.3677,5.38,5.3763,5.3839,5.3978,5.402,5.406,5.4254,5.4222,5.4279,5.4379,5.4458,5.4479,5.4498,5.4564,5.4588,5.4295,5.4295,5.4295,0,5.341,5.354,5.3533,5.3631,5.3677,5.3635,5.3745,5.3785,5.3867,5.3899,5.3855,5.4026,5.4064,5.4213,5.426,5.4295,5.4322,5.4271,5.4477,5.4496,5.4514,5.4576,5.4601,5.4301,5.43,5.43,5.4299,0,5.3641,5.3731,5.3813,5.3891,5.3946,5.405,5.4058,5.4114,5.4101,5.4114,5.4238,5.4281,5.4363,5.4398,5.4388,5.4546,5.452,5.4477,5.4398,5.4546,5.4605,5.4629,5.431,5.4308,5.4306,5.4305,0,0,5.3879,5.3951,5.398,5.4014,5.4076,5.4145,5.4246,5.4325,5.4372,5.443,5.4512,5.463,5.4589,5.4634,5.4628,5.4697,5.4843,5.4645,5.4646,5.4678,5.5016,5.5045,5.5073,5.4823,5.4828,5.4831,5.5009,0,5.4061,5.4237,5.4233,5.4395,5.4476,5.4437,5.4524,5.4571,5.4587,5.4657,5.4674,5.4755,5.4698,5.4724,5.4791,5.4811,5.491,5.4799,5.4897,5.4901,5.4881,5.5104,5.5137,5.5303,5.5033,5.5037,5.5039,0,5.4298,5.4361,5.4532,5.4579,5.4613,5.4691,5.4761,5.483,5.4882,5.4887,5.4936,5.4918,5.5018,5.4938,5.5074,5.4998,5.5039,5.5054,5.5061,5.5067,5.4977,5.5114,5.5356,5.5379,5.5076,5.5073,5.507,0,5.445,5.4579,5.4696,5.4726,5.4785,5.484,5.4867,5.4914,5.496,5.5022,5.5052,5.5125,5.5164,5.5221,5.5221,5.5164,5.5358,5.5279,5.5364,5.5364,5.5405,5.5401,5.5653,5.5436,5.5436,5.5435,5.5435,0,5.4652,5.4757,5.4764,5.4836,5.4952,5.4945,5.5059,5.5081,5.5122,5.5196,5.5168,5.5238,5.5236,5.5307,5.5309,5.5419,5.5439,5.5444,5.5443,5.5445,5.5444,5.5469,5.5457,5.5442,5.544,5.5439,5.5438,0,5.4841,5.485,5.4975,5.5019,5.5033,5.5115,5.5153,5.522,5.5232,5.5326,5.5348,5.5367,5.5448,5.5455,5.5551,5.5551,5.5684,5.5672,5.5666,5.5663,5.5745,5.5736,5.602,5.6055,5.5818,5.582,5.5822,0,5.4968,5.5047,5.5099,5.5147,5.5176,5.5254,5.53,5.5296,5.5346,5.5409,5.5468,5.5547,5.5609,5.5742,5.5763,5.5835,5.5822,5.5916,5.5833,5.5831,5.5819,5.5813,5.5819,5.5932,5.5935,5.5937,5.5938,0,5.5192,5.5191,5.526,5.533,5.5386,5.5441,5.5492,5.5532,5.5534,5.5592,5.5674,5.5722,5.5818,5.5896,5.5965,5.5992,5.5965,5.5965,5.5987,5.5989,5.5981,5.5983,5.5707,5.5958,5.5956,5.5954,5.5953,5.5953,5.5351,5.5418,5.5464,5.554,5.5578,5.5626,5.569,5.5709,5.5778,5.5855,5.5849,5.5939,5.5985,5.6076,5.6108,5.6177,5.6145,5.6179,5.6187,5.6195,5.6202,5.5972,5.6191,5.619,5.619,5.6189,5.6189,0,5.557,5.5597,5.5667,5.5738,5.5798,5.5767,5.5821,5.5873,5.5953,5.5998,5.6059,5.6152,5.6227,5.6253,5.6325,5.6376,5.6365,5.6394,5.6389,5.6395,5.6228,5.6199,5.6402,5.6402,5.6402,5.6402,5.6401,5.6401,5.569,5.5801,5.5806,5.5934,5.596,5.6048,5.6081,5.6124,5.6159,5.6264,5.6325,5.6342,5.6379,5.6453,5.6519,5.6525,5.6551,5.6585,5.6586,5.6429,5.6407,5.6387,5.6359,5.6592,5.6592,5.6746,5.6747,5.6748]},{"header":{"parameterUnit":"m.s-1","parameterCategory":1,"la1":30.2991,"la2":30.254,"lo1":-89.0895,"lo2":-89.0444,"dy":0.0017,"dx":0.0017,"nx":28,"ny":28,"refTime":"2023-08-04T21:00:00:Z","depth":0,"parameterNumber":3,"parameterNumberName":"V-component_of_WINDS"},"data":[0,0,0,0,0,0,0,0,0,0,0,0,0,0,0,0,0,0,0,0,0,0,0,0,0,0,0,0,0,0,0,0,0,0,0,0,0,0,0,0,0,0,0,0,0,0,0,0,0,0,0,0,0,0,0,0,0,0,3.5598,3.5599,0,3.5675,3.5676,3.5677,3.5658,3.5656,3.5655,3.5653,3.5728,3.5731,3.5735,0,0,0,0,0,0,0,0,0,0,0,0,0,3.5428,3.5431,3.5598,3.5599,3.56,3.5675,3.5676,3.5677,3.5658,3.5656,3.5654,3.5653,3.5727,3.5731,3.5735,0,0,0,0,0,0,0,0,0,0,0,0,0,3.5503,3.5432,3.5597,3.5599,3.56,3.5675,3.5676,3.5677,3.5658,3.5656,3.5654,3.5652,3.5726,3.5731,3.5736,3.5812,0,0,3.5751,3.5753,0,0,0,0,0,0,0,0,3.5499,3.5509,3.5598,3.5599,3.5601,3.5655,3.5643,3.5722,3.5659,3.5636,3.5653,3.5651,3.5705,3.5712,3.5731,3.5815,3.5818,3.5752,3.5755,3.5757,3.5758,0,0,0,0,0,0,0,3.5494,3.5506,3.5628,3.5599,3.5601,3.5594,3.5603,3.5658,3.5682,3.5638,3.5637,3.5646,3.5705,3.5726,3.5733,3.5819,3.5751,3.5756,3.5759,3.5761,3.5967,3.5969,0,0,0,0,0,0,3.5488,3.5502,3.5626,3.563,3.5543,3.5599,3.5608,3.5639,3.5681,3.5686,3.5648,3.5645,3.5719,3.5727,3.5735,3.5825,3.5757,3.5762,3.5764,3.5965,3.5967,3.597,0,0,0,0,0,0,3.5485,3.55,3.5622,3.5566,3.5581,3.5605,3.5639,3.5642,3.5663,3.5689,3.5693,3.5666,3.5717,3.5728,3.5792,3.5828,3.5764,3.5768,3.5962,3.5965,3.5969,3.6007,0,0,0,0,0,0,3.548,3.5498,3.5529,3.5567,3.5584,3.568,3.5642,3.5645,3.5672,3.5669,3.5707,3.571,3.5716,3.5785,3.5798,3.5834,3.5772,3.5959,3.5963,3.5968,3.6003,3.6012,3.602,0,0,0,0,0,3.5474,3.5536,3.5531,3.5546,3.5623,3.5682,3.5692,3.5699,3.5675,3.5705,3.5722,3.5709,3.5822,3.5792,3.5806,3.5844,3.5956,3.5962,3.5967,3.5999,3.601,3.6019,0,0,0,0,0,0,3.5501,3.5541,3.5535,3.5612,3.5644,3.5679,3.5717,3.571,3.5749,3.5744,3.5749,3.5758,3.5823,3.584,3.5806,3.5918,3.5885,3.5894,3.5905,3.5916,3.5924,3.5918,3.5777,0,0,0,0,0,3.5516,3.5562,3.5594,3.5659,3.5675,3.5694,3.572,3.5722,3.5755,3.5768,3.5789,3.582,3.5862,3.589,3.593,3.6005,3.6012,3.6038,3.6046,3.6053,3.606,3.6099,3.611,3.5988,3.5988,3.5988,0,0,3.5547,3.5575,3.5604,3.5665,3.569,3.5736,3.5705,3.5756,3.5789,3.5775,3.5837,3.5854,3.5888,3.5958,3.599,3.5974,3.6095,3.606,3.6065,3.6069,3.6106,3.6117,3.6128,3.5992,3.5991,3.5991,0,0,3.5627,3.5654,3.5709,3.5735,3.5774,3.5785,3.5799,3.5835,3.5846,3.5908,3.5898,3.5937,3.601,3.6035,3.6057,3.6145,3.6134,3.6158,3.62,3.6238,3.6248,3.6256,3.6286,3.6297,3.6165,3.6165,3.6165,0,3.566,3.5731,3.5739,3.579,3.5816,3.5807,3.5862,3.5886,3.5935,3.5953,3.5935,3.6025,3.6048,3.6122,3.6144,3.6162,3.6176,3.6153,3.6246,3.6255,3.6263,3.6291,3.6303,3.6167,3.6167,3.6167,3.6167,0,3.5769,3.5819,3.5859,3.5908,3.5938,3.5991,3.6005,3.6035,3.6034,3.6047,3.6109,3.6136,3.6181,3.6199,3.6199,3.6273,3.6262,3.6245,3.6212,3.6277,3.6304,3.6315,3.6171,3.617,3.6169,3.6169,0,0,3.5869,3.5921,3.5935,3.5957,3.5998,3.6035,3.6087,3.6132,3.6156,3.619,3.6232,3.6294,3.6278,3.6303,3.6305,3.6339,3.6404,3.6317,3.6318,3.6332,3.6486,3.6497,3.651,3.6398,3.64,3.6402,3.6482,0,3.5952,3.6044,3.6052,3.6134,3.6178,3.6169,3.6214,3.6243,3.6256,3.6293,3.6307,3.635,3.6327,3.6342,3.6374,3.639,3.6435,3.6384,3.6435,3.6437,3.6426,3.6524,3.6537,3.6612,3.6493,3.6495,3.6496,0,3.6061,3.6099,3.6186,3.622,3.6239,3.6279,3.632,3.6357,3.6389,3.6396,3.6423,3.642,3.6471,3.6436,3.6505,3.647,3.6491,3.6501,3.6504,3.6509,3.647,3.653,3.6636,3.6647,3.6513,3.6512,3.651,0,3.6123,3.6196,3.6257,3.6276,3.6317,3.6345,3.6363,3.6393,3.6419,3.6454,3.6471,3.6511,3.6533,3.6563,3.657,3.6545,3.6638,3.6605,3.6643,3.6643,3.6663,3.6662,3.6773,3.6679,3.6678,3.6678,3.6678,0,3.6214,3.6267,3.6285,3.6323,3.6382,3.6389,3.6446,3.6462,3.6488,3.6527,3.6521,3.6558,3.6565,3.6603,3.6608,3.6663,3.6673,3.6679,3.6679,3.6679,3.6678,3.6692,3.6687,3.6681,3.668,3.668,3.6679,0,3.6293,3.6308,3.6373,3.6407,3.6417,3.6458,3.6486,3.6521,3.6533,3.6582,3.6594,3.6612,3.6656,3.6666,3.6717,3.6721,3.6786,3.6782,3.6775,3.6775,3.6812,3.6808,3.6936,3.6952,3.6848,3.6849,3.685,0,3.635,3.6391,3.6429,3.6455,3.6475,3.6517,3.6544,3.6552,3.6579,3.6618,3.6648,3.6691,3.6726,3.6795,3.6811,3.685,3.6846,3.6888,3.6852,3.685,3.6845,3.6842,3.6846,3.6895,3.6896,3.6897,3.6898,0,3.6448,3.6453,3.6493,3.6535,3.6567,3.66,3.6631,3.6652,3.6664,3.6695,3.674,3.6767,3.682,3.6862,3.69,3.6917,3.6909,3.6909,3.692,3.6919,3.6913,3.6916,3.6793,3.6906,3.6905,3.6905,3.6904,3.6904,3.6517,3.6552,3.6584,3.6628,3.6653,3.6682,3.6716,3.6732,3.677,3.6815,3.6817,3.6865,3.6894,3.6945,3.6964,3.7,3.6987,3.7003,3.7007,3.7011,3.7013,3.6909,3.7008,3.7007,3.7007,3.7007,3.7007,0,3.6614,3.6634,3.6674,3.6718,3.6752,3.6743,3.6777,3.6805,3.6849,3.6877,3.6911,3.6962,3.7002,3.7022,3.7061,3.7087,3.7084,3.7097,3.7094,3.7098,3.7024,3.701,3.7098,3.7098,3.7098,3.7098,3.7098,3.7098,3.6668,3.6727,3.6735,3.6805,3.6825,3.6873,3.6893,3.6919,3.6942,3.6999,3.7033,3.7046,3.707,3.7111,3.7147,3.7151,3.7166,3.718,3.7183,3.7113,3.7103,3.7094,3.7081,3.7183,3.7184,3.7254,3.7254,3.7255]}]]